SCP
1 0 0 0 0 0 0 0 0 0 0 0 0 0 0 0 0 0 0 1 1 1 0 0 0 1 1 1 1 0 0 0 0 0 0 0 0 0 0 0 0 0 0
1 0 0 0 0 0 0 0 0 0 0 0 0 0 0 0 0 0 0 0 1 0 0 0 0 1 1 1 1 0 0 0 0 0 0 0 0 0 0 0 0 0 -0
2 1 0 0 0 0 0 0 0 0 0 0 0 0 0 0 0 0 0 0 0 0 0 0 0 0 1 1 0 0 0 0 0 0 -0 0 0 0 0 0 0 0 0
1 2 1 0 0 0 0 0 0 -0 0 0 1 0 1 1 1 1 1 1 0 0 0 0 0 1 1 1 0 0 0 0 0 0 0 0 0 0 0 0 0 0 0
1 2 1 0 1 0 0 0 0 0 2 2 1 2 2 2 2 1 1 1 1 0 1 0 0 1 0 1 1 0 0 0 0 0 0 0 0 0 0 0 0 0 0
1 2 0 0 1 0 0 0 1 1 2 4 2 1 4 4 3 2 1 1 1 1 1 2 1 1 1 1 0 0 0 0 0 0 0 0 0 0 0 0 0 0 0
0 1 0 0 1 0 1 1 2 2 2 2 2 1 2 5 3 2 2 1 1 1 1 2 2 0 1 0 0 0 0 0 0 0 0 0 0 0 0 0 0 0 0
1 1 1 0 1 1 2 2 2 2 2 3 3 2 2 2 4 2 1 0 1 1 2 1 1 2 1 0 0 0 0 0 0 0 0 0 0 0 0 0 0 0 0
1 1 1 1 1 1 2 3 3 3 2 4 4 4 2 2 2 3 2 1 1 2 1 1 2 1 1 0 1 1 0 0 0 0 0 0 0 0 0 0 0 0 0
-1 1 1 1 1 2 2 3 2 3 4 3 4 4 3 4 4 2 4 2 1 1 1 1 2 1 1 1 0 1 0 0 0 0 0 0 0 0 0 0 0 0 0
-0 1 2 1 1 1 2 3 5 7 3 2 2 4 3 2 3 4 3 1 2 0 0 1 0 1 1 1 1 1 0 0 0 0 0 0 0 0 0 0 0 0 0
5 3 0 1 1 1 3 6 7 6 3 4 2 5 3 2 2 3 2 0 1 1 1 2 1 1 0 1 1 0 0 0 0 0 0 0 0 0 0 0 0 0 0
4 8 3 2 2 1 4 7 7 6 12 8 6 4 4 3 3 2 1 1 0 1 2 1 2 0 1 1 1 1 0 0 0 0 0 0 0 0 0 0 0 0 0
1 4 7 6 5 4 4 6 8 12 12 7 6 4 4 4 3 3 1 1 0 0 1 2 1 1 0 1 0 0 0 0 0 0 0 0 0 0 0 0 0 0 0
1 1 5 7 5 6 7 9 12 12 10 7 6 4 3 4 5 2 2 0 1 0 1 3 1 1 1 1 0 0 0 0 0 0 0 0 0 0 0 0 0 0 0
2 3 4 5 8 7 7 13 10 10 9 7 5 3 3 3 5 2 2 1 1 0 0 1 1 1 1 0 0 0 0 0 0 0 0 0 0 0 0 0 0 0 0
3 3 3 5 6 8 10 11 9 7 6 7 4 3 3 3 3 2 1 1 0 0 1 1 1 1 1 0 0 0 0 0 0 0 0 0 0 0 0 0 0 0 0
2 3 3 2 5 8 10 8 6 4 5 5 3 3 3 3 2 3 2 2 1 2 1 1 1 1 0 0 0 0 0 0 0 0 0 0 0 0 0 0 0 0 0
1 2 2 2 2 3 5 5 4 4 5 4 3 2 3 3 3 3 2 2 1 1 1 0 1 1 0 1 0 0 0 0 0 0 0 0 0 0 0 0 0 0 0
1 1 2 1 1 3 3 3 3 4 6 3 3 3 2 2 2 2 2 2 2 2 1 1 1 1 0 1 0 0 0 0 0 0 0 0 0 0 0 0 0 0 0
2 1 1 1 2 2 3 3 3 5 4 3 4 3 2 1 1 1 1 1 2 1 1 1 1 1 0 0 0 0 0 0 0 0 0 0 0 0 0 0 0 0 0
2 1 1 1 1 2 2 3 4 4 2 3 4 2 2 1 1 0 0 0 0 1 1 1 1 1 1 0 1 0 0 0 0 0 0 0 0 0 0 0 0 0 0
2 1 1 2 2 2 1 2 3 4 3 4 3 2 2 1 1 1 0 0 0 0 0 1 1 0 0 1 0 0 0 0 0 0 0 0 0 0 0 0 0 0 0
1 1 1 2 3 5 0 1 2 3 3 3 3 2 1 1 0 0 0 0 0 0 0 0 0 1 1 1 0 0 0 0 0 0 0 0 0 0 0 0 0 0 0
2 1 2 2 3 3 0 1 2 3 3 2 1 1 1 1 0 0 0 0 0 0 0 0 0 0 0 0 0 0 0 0 0 0 0 0 0 0 0 0 0 0 0
2 2 2 2 3 3 0 0 2 2 2 2 1 1 0 1 0 0 0 0 0 0 0 0 0 0 0 0 0 0 0 0 0 0 0 0 0 0 0 0 0 0 0
Wind_Speed_500mb
37 30 27 25 23 18 21 19 23 26 30 27 27 30 30 31 30 28 30 43 42 42 40 38 35 30 27 27 27 25 20 17 24 27 30 30 29 30 32 31 28 26 23
38 32 31 28 27 24 21 24 28 26 24 24 25 30 30 30 31 30 28 34 42 40 40 41 41 36 29 31 32 32 30 23 23 28 30 30 31 32 33 34 31 27 25
44 40 34 33 27 27 25 22 30 27 25 26 30 30 29 30 32 31 32 31 33 41 33 42 43 43 35 34 33 33 34 29 26 25 32 31 32 34 34 32 31 30 29
47 51 45 41 31 31 24 17 19 21 21 20 36 28 25 27 31 34 31 33 29 30 37 29 35 42 41 36 33 36 33 30 29 27 31 33 32 35 35 33 33 34 30
58 58 53 45 36 35 30 25 17 18 28 33 43 34 30 29 32 31 34 35 34 32 28 34 32 35 38 38 37 38 36 31 33 31 30 36 35 33 32 31 36 32 32
65 71 56 48 45 46 39 31 33 23 33 41 40 34 33 34 31 34 36 37 34 33 30 35 36 34 33 36 37 38 39 36 34 34 32 35 36 34 31 30 32 32 30
58 72 78 66 58 57 54 48 43 41 54 51 41 34 35 40 44 37 43 38 36 37 34 39 44 27 42 36 33 35 41 41 40 37 34 33 38 36 34 32 34 32 33
69 78 98 86 79 67 68 65 49 51 43 45 36 24 32 29 42 44 31 38 38 37 37 40 35 33 34 30 36 35 35 39 41 41 35 32 35 39 37 33 33 34 31
57 71 89 82 84 75 81 68 60 52 35 32 48 36 16 21 22 28 30 29 36 33 29 30 32 31 34 32 34 36 45 38 38 42 37 33 32 39 41 37 34 36 35
64 70 74 85 87 87 91 73 55 48 44 40 32 49 43 33 14 22 19 25 28 32 34 28 30 37 28 35 28 41 45 35 38 41 40 36 33 39 43 41 37 36 38
73 67 80 84 85 97 100 75 49 43 31 47 40 37 34 36 43 37 42 33 34 26 27 28 25 25 28 26 33 37 35 38 38 38 41 40 34 38 44 43 39 35 36
78 86 115 96 102 100 90 74 58 44 45 67 54 46 35 28 29 37 37 41 37 35 32 24 24 24 24 32 26 34 37 38 35 38 39 39 35 38 43 44 42 38 34
63 77 85 80 86 97 97 73 63 62 70 61 66 57 43 42 36 36 41 35 39 21 24 18 26 25 24 25 30 32 33 34 28 36 39 39 36 36 44 45 43 39 35
66 62 65 69 76 78 92 95 84 72 66 66 57 65 51 49 42 37 42 37 44 32 22 30 22 27 24 24 30 33 30 22 27 32 35 39 37 37 43 45 42 39 35
68 58 62 66 72 69 75 80 79 72 67 66 59 54 49 44 47 37 38 38 34 36 27 32 26 25 22 24 27 27 17 28 25 32 33 37 39 39 42 43 41 37 36
69 65 64 73 84 65 62 70 62 66 64 62 53 42 46 44 45 38 42 43 30 31 29 17 24 19 21 29 32 30 28 32 31 32 34 38 37 38 42 41 41 38 39
66 76 81 69 72 64 67 76 76 67 63 59 46 44 52 46 40 40 39 32 31 30 28 17 10 21 32 32 28 28 30 22 29 28 36 37 39 38 40 39 39 38 41
64 65 65 70 73 70 73 76 71 58 58 47 46 48 50 42 49 44 38 34 31 31 32 29 21 20 23 23 22 23 25 19 24 28 42 41 38 39 39 40 40 42 44
57 61 61 61 63 66 68 70 69 61 55 49 47 56 48 48 48 47 41 32 33 32 28 35 21 21 18 21 25 21 24 22 21 23 32 45 38 38 40 40 39 41 42
55 63 65 65 68 66 68 62 58 59 56 47 57 52 45 48 49 43 35 36 31 30 34 30 26 23 21 24 23 24 22 20 19 19 25 37 38 39 40 35 35 40 36
55 63 66 69 72 70 70 67 65 61 59 54 55 47 48 44 41 33 30 35 33 35 32 34 31 27 23 23 30 25 18 23 21 24 29 32 36 38 37 41 39 41 40
58 64 71 74 75 76 77 75 68 63 62 55 54 46 42 45 43 45 42 37 37 41 38 33 31 38 30 28 29 27 21 25 20 28 26 31 32 36 40 38 37 38 37
61 71 74 75 78 82 79 78 70 68 60 57 51 48 44 37 47 41 42 45 41 38 38 36 32 32 32 31 28 31 27 21 15 25 32 31 33 30 32 41 40 36 34
67 74 79 79 80 84 76 76 81 57 55 49 49 52 51 38 36 32 29 38 39 34 40 39 35 38 37 33 31 33 31 30 27 21 30 30 33 33 36 33 32 33 39
72 80 80 80 80 81 79 81 81 52 48 47 43 40 39 34 34 40 32 29 28 33 34 35 38 38 37 36 31 36 34 31 23 19 35 35 37 36 36 33 35 34 39
74 79 83 80 79 85 83 77 71 47 50 44 39 35 40 35 37 35 35 29 32 29 35 35 33 26 27 32 31 32 31 31 23 22 33 38 36 38 29 41 36 36 44
Wind_Direction_500mb
214 223 218 214 230 229 244 246 245 252 258 263 262 265 271 269 265 265 258 274 275 274 253 247 247 250 263 257 253 256 267 271 252 238 236 235 233 231 235 239 243 262 254
223 218 222 225 225 231 231 244 250 254 272 266 269 267 269 268 270 266 264 267 278 283 259 246 246 249 257 263 253 257 258 271 260 246 237 234 235 234 237 239 243 249 251
211 216 222 229 232 235 245 256 249 254 261 272 287 278 269 272 272 268 263 260 269 279 281 247 246 248 256 271 257 256 255 264 256 255 242 233 234 237 238 238 240 244 246
230 237 229 237 236 239 239 262 243 241 242 297 292 268 264 272 269 269 265 260 261 257 273 278 253 247 256 267 262 255 257 259 255 260 247 236 233 235 237 236 238 240 244
248 245 240 236 238 235 228 228 228 242 255 279 281 262 269 261 260 267 264 261 259 242 252 275 266 253 260 263 260 255 257 259 257 259 251 239 233 232 233 234 235 242 246
253 254 233 235 244 230 227 225 244 242 256 260 267 267 262 256 262 267 258 260 253 252 253 260 270 268 272 257 267 260 256 261 259 253 250 241 234 231 230 228 234 241 242
251 242 241 248 249 232 230 234 245 246 256 265 273 276 271 271 296 284 251 254 255 248 250 251 254 260 267 272 271 272 262 260 260 248 243 243 235 229 230 228 234 242 220
249 251 251 254 253 236 231 233 250 249 248 254 256 266 275 277 269 280 259 243 251 252 253 268 257 261 265 260 276 269 271 255 252 243 241 241 234 228 227 225 226 233 221
274 265 256 249 248 239 228 232 245 241 232 238 266 250 265 258 284 248 239 237 247 254 250 256 260 262 261 256 259 274 275 254 244 241 239 237 238 227 225 224 224 222 223
283 283 264 258 241 237 225 232 241 248 251 241 239 262 249 242 274 270 235 248 228 240 247 249 270 269 254 261 255 251 262 256 244 244 239 239 241 227 221 222 224 224 227
271 275 278 263 245 234 229 223 239 238 253 265 240 240 261 250 249 261 275 255 221 234 243 249 262 259 263 254 253 262 260 265 252 241 233 238 239 225 218 220 222 224 228
252 254 264 253 243 238 226 235 225 249 274 258 248 232 234 239 238 243 258 259 255 248 226 232 254 263 259 266 262 250 251 259 247 236 231 237 234 222 216 218 221 224 228
242 239 249 251 235 236 231 226 236 253 261 248 242 242 232 238 244 250 263 258 263 229 201 230 249 254 255 253 260 258 266 250 241 230 227 231 232 223 216 218 222 223 228
244 244 248 248 240 232 238 237 243 240 254 249 242 252 224 235 235 244 253 253 257 257 234 252 228 236 253 256 251 260 265 249 238 229 226 227 225 218 217 218 219 221 225
241 239 246 246 249 244 240 243 239 243 246 242 246 246 233 233 236 240 243 237 254 269 249 238 230 216 216 256 258 258 245 255 245 230 229 224 220 223 217 217 216 220 224
246 241 240 246 251 246 236 232 233 237 238 237 242 238 231 224 236 230 233 230 249 253 273 204 202 210 235 247 245 247 245 247 249 235 228 221 219 220 217 217 215 218 220
265 251 248 241 248 243 227 234 237 234 230 233 232 223 228 221 224 223 218 226 238 243 249 251 207 232 251 256 245 248 244 245 250 241 225 220 223 219 216 218 216 219 219
262 258 258 256 238 231 231 234 229 217 223 219 218 217 217 220 214 213 214 225 233 242 239 252 231 241 258 253 258 262 249 231 237 243 222 220 220 215 213 217 218 217 218
260 254 243 242 235 226 224 224 219 206 212 207 216 212 216 213 214 218 207 224 233 239 243 243 247 227 244 243 241 235 250 246 238 239 226 216 214 210 211 218 221 216 213
257 251 238 234 225 223 217 213 207 204 206 209 212 215 211 214 214 215 213 218 224 229 229 235 232 219 236 233 232 242 241 229 220 211 204 198 205 209 212 213 212 210 212
253 249 234 231 223 217 212 207 205 200 206 206 210 210 211 210 212 211 214 226 223 224 232 233 240 225 228 223 224 230 227 214 222 215 203 201 205 208 211 210 208 211 212
250 243 231 227 220 215 211 206 199 197 203 202 202 203 205 210 204 212 216 217 216 223 227 230 238 235 233 231 223 217 212 202 212 211 193 201 213 215 215 213 207 203 208
246 237 228 222 216 210 206 205 195 200 197 197 206 200 197 203 215 221 222 221 229 235 234 232 235 242 241 222 226 212 210 211 208 227 196 203 209 214 210 206 204 207 199
241 228 222 216 207 201 200 203 198 192 194 203 200 201 196 204 221 205 214 220 227 239 242 244 248 246 239 241 240 216 205 197 214 226 198 207 198 202 202 206 210 203 203
231 221 215 205 199 194 199 201 190 188 185 188 193 193 196 205 226 206 205 217 220 228 238 243 244 256 248 239 225 210 192 198 209 215 204 212 207 204 206 208 202 206 209
224 217 205 197 193 196 197 193 178 176 182 181 180 193 203 202 214 211 209 216 222 226 238 249 242 235 231 223 213 206 210 205 202 213 213 214 219 211 221 218 205 217 205
Wind_Speed_850mb
37 30 27 25 23 18 21 19 23 26 30 27 27 30 30 31 30 28 30 43 42 42 40 38 35 30 27 27 27 25 20 17 24 27 30 30 29 30 32 31 28 26 23
38 32 31 28 27 24 21 24 28 26 24 24 25 30 30 30 31 30 28 34 42 40 40 41 41 36 29 31 32 32 30 23 23 28 30 30 31 32 33 34 31 27 25
44 40 34 33 27 27 25 22 30 27 25 26 30 30 29 30 32 31 32 31 33 41 33 42 43 43 35 34 33 33 34 29 26 25 32 31 32 34 34 32 31 30 29
47 51 45 41 31 31 24 17 19 21 21 20 36 28 25 27 31 34 31 33 29 30 37 29 35 42 41 36 33 36 33 30 29 27 31 33 32 35 35 33 33 34 30
58 58 53 45 36 35 30 25 17 18 28 33 43 34 30 29 32 31 34 35 34 32 28 34 32 35 38 38 37 38 36 31 33 31 30 36 35 33 32 31 36 32 32
65 71 56 48 45 46 39 31 33 23 33 41 40 34 33 34 31 34 36 37 34 33 30 35 36 34 33 36 37 38 39 36 34 34 32 35 36 34 31 30 32 32 30
58 72 78 66 58 57 54 48 43 41 54 51 41 34 35 40 44 37 43 38 36 37 34 39 44 27 42 36 33 35 41 41 40 37 34 33 38 36 34 32 34 32 33
69 78 98 86 79 67 68 65 49 51 43 45 36 24 32 29 42 44 31 38 38 37 37 40 35 33 34 30 36 35 35 39 41 41 35 32 35 39 37 33 33 34 31
57 71 89 82 84 75 81 68 60 52 35 32 48 36 16 21 22 28 30 29 36 33 29 30 32 31 34 32 34 36 45 38 38 42 37 33 32 39 41 37 34 36 35
64 70 74 85 87 87 91 73 55 48 44 40 32 49 43 33 14 22 19 25 28 32 34 28 30 37 28 35 28 41 45 35 38 41 40 36 33 39 43 41 37 36 38
73 67 80 84 85 97 100 75 49 43 31 47 40 37 34 36 43 37 42 33 34 26 27 28 25 25 28 26 33 37 35 38 38 38 41 40 34 38 44 43 39 35 36
78 86 115 96 102 100 90 74 58 44 45 67 54 46 35 28 29 37 37 41 37 35 32 24 24 24 24 32 26 34 37 38 35 38 39 39 35 38 43 44 42 38 34
63 77 85 80 86 97 97 73 63 62 70 61 66 57 43 42 36 36 41 35 39 21 24 18 26 25 24 25 30 32 33 34 28 36 39 39 36 36 44 45 43 39 35
66 62 65 69 76 78 92 95 84 72 66 66 57 65 51 49 42 37 42 37 44 32 22 30 22 27 24 24 30 33 30 22 27 32 35 39 37 37 43 45 42 39 35
68 58 62 66 72 69 75 80 79 72 67 66 59 54 49 44 47 37 38 38 34 36 27 32 26 25 22 24 27 27 17 28 25 32 33 37 39 39 42 43 41 37 36
69 65 64 73 84 65 62 70 62 66 64 62 53 42 46 44 45 38 42 43 30 31 29 17 24 19 21 29 32 30 28 32 31 32 34 38 37 38 42 41 41 38 39
66 76 81 69 72 64 67 76 76 67 63 59 46 44 52 46 40 40 39 32 31 30 28 17 10 21 32 32 28 28 30 22 29 28 36 37 39 38 40 39 39 38 41
64 65 65 70 73 70 73 76 71 58 58 47 46 48 50 42 49 44 38 34 31 31 32 29 21 20 23 23 22 23 25 19 24 28 42 41 38 39 39 40 40 42 44
57 61 61 61 63 66 68 70 69 61 55 49 47 56 48 48 48 47 41 32 33 32 28 35 21 21 18 21 25 21 24 22 21 23 32 45 38 38 40 40 39 41 42
55 63 65 65 68 66 68 62 58 59 56 47 57 52 45 48 49 43 35 36 31 30 34 30 26 23 21 24 23 24 22 20 19 19 25 37 38 39 40 35 35 40 36
55 63 66 69 72 70 70 67 65 61 59 54 55 47 48 44 41 33 30 35 33 35 32 34 31 27 23 23 30 25 18 23 21 24 29 32 36 38 37 41 39 41 40
58 64 71 74 75 76 77 75 68 63 62 55 54 46 42 45 43 45 42 37 37 41 38 33 31 38 30 28 29 27 21 25 20 28 26 31 32 36 40 38 37 38 37
61 71 74 75 78 82 79 78 70 68 60 57 51 48 44 37 47 41 42 45 41 38 38 36 32 32 32 31 28 31 27 21 15 25 32 31 33 30 32 41 40 36 34
67 74 79 79 80 84 76 76 81 57 55 49 49 52 51 38 36 32 29 38 39 34 40 39 35 38 37 33 31 33 31 30 27 21 30 30 33 33 36 33 32 33 39
72 80 80 80 80 81 79 81 81 52 48 47 43 40 39 34 34 40 32 29 28 33 34 35 38 38 37 36 31 36 34 31 23 19 35 35 37 36 36 33 35 34 39
74 79 83 80 79 85 83 77 71 47 50 44 39 35 40 35 37 35 35 29 32 29 35 35 33 26 27 32 31 32 31 31 23 22 33 38 36 38 29 41 36 36 44
Wind_Direction_850mb
214 223 218 214 230 229 244 246 245 252 258 263 262 265 271 269 265 265 258 274 275 274 253 247 247 250 263 257 253 256 267 271 252 238 236 235 233 231 235 239 243 262 254
223 218 222 225 225 231 231 244 250 254 272 266 269 267 269 268 270 266 264 267 278 283 259 246 246 249 257 263 253 257 258 271 260 246 237 234 235 234 237 239 243 249 251
211 216 222 229 232 235 245 256 249 254 261 272 287 278 269 272 272 268 263 260 269 279 281 247 246 248 256 271 257 256 255 264 256 255 242 233 234 237 238 238 240 244 246
230 237 229 237 236 239 239 262 243 241 242 297 292 268 264 272 269 269 265 260 261 257 273 278 253 247 256 267 262 255 257 259 255 260 247 236 233 235 237 236 238 240 244
248 245 240 236 238 235 228 228 228 242 255 279 281 262 269 261 260 267 264 261 259 242 252 275 266 253 260 263 260 255 257 259 257 259 251 239 233 232 233 234 235 242 246
253 254 233 235 244 230 227 225 244 242 256 260 267 267 262 256 262 267 258 260 253 252 253 260 270 268 272 257 267 260 256 261 259 253 250 241 234 231 230 228 234 241 242
251 242 241 248 249 232 230 234 245 246 256 265 273 276 271 271 296 284 251 254 255 248 250 251 254 260 267 272 271 272 262 260 260 248 243 243 235 229 230 228 234 242 220
249 251 251 254 253 236 231 233 250 249 248 254 256 266 275 277 269 280 259 243 251 252 253 268 257 261 265 260 276 269 271 255 252 243 241 241 234 228 227 225 226 233 221
274 265 256 249 248 239 228 232 245 241 232 238 266 250 265 258 284 248 239 237 247 254 250 256 260 262 261 256 259 274 275 254 244 241 239 237 238 227 225 224 224 222 223
283 283 264 258 241 237 225 232 241 248 251 241 239 262 249 242 274 270 235 248 228 240 247 249 270 269 254 261 255 251 262 256 244 244 239 239 241 227 221 222 224 224 227
271 275 278 263 245 234 229 223 239 238 253 265 240 240 261 250 249 261 275 255 221 234 243 249 262 259 263 254 253 262 260 265 252 241 233 238 239 225 218 220 222 224 228
252 254 264 253 243 238 226 235 225 249 274 258 248 232 234 239 238 243 258 259 255 248 226 232 254 263 259 266 262 250 251 259 247 236 231 237 234 222 216 218 221 224 228
242 239 249 251 235 236 231 226 236 253 261 248 242 242 232 238 244 250 263 258 263 229 201 230 249 254 255 253 260 258 266 250 241 230 227 231 232 223 216 218 222 223 228
244 244 248 248 240 232 238 237 243 240 254 249 242 252 224 235 235 244 253 253 257 257 234 252 228 236 253 256 251 260 265 249 238 229 226 227 225 218 217 218 219 221 225
241 239 246 246 249 244 240 243 239 243 246 242 246 246 233 233 236 240 243 237 254 269 249 238 230 216 216 256 258 258 245 255 245 230 229 224 220 223 217 217 216 220 224
246 241 240 246 251 246 236 232 233 237 238 237 242 238 231 224 236 230 233 230 249 253 273 204 202 210 235 247 245 247 245 247 249 235 228 221 219 220 217 217 215 218 220
265 251 248 241 248 243 227 234 237 234 230 233 232 223 228 221 224 223 218 226 238 243 249 251 207 232 251 256 245 248 244 245 250 241 225 220 223 219 216 218 216 219 219
262 258 258 256 238 231 231 234 229 217 223 219 218 217 217 220 214 213 214 225 233 242 239 252 231 241 258 253 258 262 249 231 237 243 222 220 220 215 213 217 218 217 218
260 254 243 242 235 226 224 224 219 206 212 207 216 212 216 213 214 218 207 224 233 239 243 243 247 227 244 243 241 235 250 246 238 239 226 216 214 210 211 218 221 216 213
257 251 238 234 225 223 217 213 207 204 206 209 212 215 211 214 214 215 213 218 224 229 229 235 232 219 236 233 232 242 241 229 220 211 204 198 205 209 212 213 212 210 212
253 249 234 231 223 217 212 207 205 200 206 206 210 210 211 210 212 211 214 226 223 224 232 233 240 225 228 223 224 230 227 214 222 215 203 201 205 208 211 210 208 211 212
250 243 231 227 220 215 211 206 199 197 203 202 202 203 205 210 204 212 216 217 216 223 227 230 238 235 233 231 223 217 212 202 212 211 193 201 213 215 215 213 207 203 208
246 237 228 222 216 210 206 205 195 200 197 197 206 200 197 203 215 221 222 221 229 235 234 232 235 242 241 222 226 212 210 211 208 227 196 203 209 214 210 206 204 207 199
241 228 222 216 207 201 200 203 198 192 194 203 200 201 196 204 221 205 214 220 227 239 242 244 248 246 239 241 240 216 205 197 214 226 198 207 198 202 202 206 210 203 203
231 221 215 205 199 194 199 201 190 188 185 188 193 193 196 205 226 206 205 217 220 228 238 243 244 256 248 239 225 210 192 198 209 215 204 212 207 204 206 208 202 206 209
224 217 205 197 193 196 197 193 178 176 182 181 180 193 203 202 214 211 209 216 222 226 238 249 242 235 231 223 213 206 210 205 202 213 213 214 219 211 221 218 205 217 205